Location: Allison Elementary School
(34.0784°N, 117.7317°W)
Time: 01:54:08
(UTC+00:00)

Cosmos 2297 Rocket - Pass Details

Date: 15 November 2019
Orbit: 839 x 843 km, 71.0° (Epoch: 08 December)

Event Time Altitude Azimuth Distance (km) Brightness Sun altitude
Rises 01:41:47 0° 344° (NNW) 3,402 5.4 -11.4°
Reaches altitude 10° 01:44:18 10° 349° (N) 2,464 4.6 -11.9°
Maximum altitude 01:49:50 54° 66° (ENE) 1,016 2.3 -13.1°
Drops below altitude 10° 01:55:20 10° 144° (SE) 2,453 4.4 -14.2°
Sets 01:57:49 0° 148° (SSE) 3,385 5.1 -14.7°
